Location: Newark
(40.3500°N, 15.2333°E)
Time: 09:05:30
(UTC+00:00)

Tiros 1 - Visible Passes

Search period start: 20 January 2020 00:00
Search period end: 30 January 2020 00:00
Orbit: 630 x 664 km, 48.4° (Epoch: 20 January)

Date Brightness Start Highest point End Pass type
(mag) Time Alt. Az. Time Alt. Az. Time Alt. Az.
20 Jan 8.0 17:21:04 10° NW 17:25:29 36° NNE 17:27:22 26° ENE visible
20 Jan 9.3 19:03:16 10° WNW 19:05:03 23° WNW 19:05:03 23° WNW visible
21 Jan 7.4 17:47:10 10° NW 17:51:51 51° NNE 17:52:35 46° NE visible
21 Jan 10.0 19:29:29 10° WNW 19:30:16 14° WNW 19:30:16 14° WNW visible
22 Jan 8.0 16:31:00 10° NW 16:35:23 35° NNE 16:39:48 10° ENE visible
22 Jan 7.1 18:13:13 10° WNW 18:17:53 84° NNW 18:17:53 84° NNW visible
23 Jan 7.5 16:57:07 10° NW 17:01:45 48° NNE 17:05:39 14° E visible
23 Jan 8.2 18:39:25 10° WNW 18:43:21 44° WSW 18:43:21 44° WSW visible
24 Jan 7.1 17:23:10 10° WNW 17:27:58 81° NNE 17:31:16 20° ESE visible
24 Jan 9.4 19:06:05 10° W 19:08:59 21° WSW 19:08:59 21° WSW visible
25 Jan 7.9 17:49:20 10° WNW 17:53:58 52° SW 17:57:08 20° SSE visible
26 Jan 7.2 16:33:07 10° WNW 16:37:54 77° NNE 16:42:42 10° ESE visible
26 Jan 9.2 18:15:55 10° W 18:19:46 24° SW 18:23:17 11° S visible
27 Jan 7.9 16:59:15 10° WNW 17:03:55 56° SW 17:08:37 10° SE visible
27 Jan 10.3 18:45:01 10° SW 18:45:21 10° SW 18:45:42 10° SW visible
28 Jan 9.3 17:25:46 10° W 17:29:44 26° SW 17:33:43 10° SSE visible
29 Jan 10.3 17:53:55 10° WSW 17:55:22 11° SW 17:56:47 10° SSW visible
